Location: Boiro
(42.6475°N, 8.8834°W)
Time: 17:28:14
(UTC+01:00)

A-11 Canister half - Pass Details

Date: 09 December 2021
Orbit: 1516 x 1684 km, 47.2° (Epoch: 26 January)

Event Time Altitude Azimuth Distance (km) Brightness Sun altitude
Rises 06:15:14 0° 215° (SW) 4,691 - -28.3°
Exits shadow 06:17:35 - 212° (SSW) 3,963 10.9 -27.9°
Reaches altitude 10° 06:18:21 10° 210° (SSW) 3,729 10.8 -27.7°
Maximum altitude 06:27:19 50° 139° (SE) 1,960 9.7 -26.1°
Drops below altitude 10° 06:36:37 10° 68° (ENE) 3,868 11.9 -24.4°
Sets 06:39:54 0° 64° (ENE) 4,879 12.5 -23.8°
